Retour au catalogue

ONEWEB-0551

ActifCommunicationsPO
NORAD 56053·PAYLOAD·🇬🇧 United Kingdom

Lancé Mar 26, 2023 depuis Satish Dhawan Space Centre

Loading…

Prochains Passages (prochaines 24 heures)

TLE

FraisSource: CelesTrak SupGP

Époque: Sep 14, 2026, 09:25 UTC

1 56053C 23043H   26257.39250417  .00001709  00000+0  45453-2 0  2570
2 56053  87.8976 241.4372 0001872  77.3339  27.0390 13.15545261    14

Suivez ONEWEB-0551 en temps réel avec AllMySat

Download on the App Store